Location: Breitenbich
(51.2914°N, 10.3920°E)
Time: 14:06:02
(UTC+00:00)

Daily predictions for brighter satellites

Satellite Brightness Start Highest point End
(mag) Time Altitude Azimuth Time Altitude Azimuth Time Altitude Azimuth
NOSS 2-1 (C) 4.4 15:47:44 10° NW 15:52:33 79° SW 15:59:22 10° SE
ADEOS Rocket 3.7 15:45:46 10° NNE 15:53:21 61° E 16:01:02 10° S
GENESIS II 4.3 15:50:34 10° NW 15:54:32 60° NE 15:58:24 10° SE
Okean O Rocket 2.2 15:50:42 10° SE 15:54:39 35° ENE 15:58:38 10° N
Cosmos 2315 Rocket 4.4 15:51:53 10° SSW 15:58:05 68° WNW 16:04:24 10° N
Cosmos 1570 Rocket 4.1 15:53:20 10° SSW 15:58:38 75° ESE 16:03:55 10° NNE
Cosmos 2084 Rocket 4.1 15:56:48 10° WSW 16:00:50 49° NW 16:04:59 10° NE
Cosmos 2369 Rocket 3.6 15:57:18 10° NNW 16:01:17 19° NNE 16:05:15 10° ENE
CZ-4B R/B 4.2 15:58:11 10° S 16:02:10 47° W 16:06:22 10° NNW
CZ-4C R/B 3.5 15:58:54 10° NNE 16:02:23 43° E 16:05:52 10° S
CORIOLIS 4.4 15:58:11 10° SE 16:03:18 46° ENE 16:08:28 10° N
Cosmos 2322 3.9 15:57:46 10° SW 16:03:26 77° WNW 16:09:10 10° NNE
Cosmos 2154 Rocket 4.1 15:59:05 10° N 16:05:22 61° ENE 16:11:38 10° SSE
CZ-4 R/B 3.3 16:04:29 10° ENE 16:05:36 11° NE 16:06:45 10° NE
NOSS 0 Rocket 4.4 16:00:06 10° S 16:05:59 45° ESE 16:11:53 10° NE
Cosmos 1763 Rocket 4.3 16:02:50 10° SW 16:07:45 49° WNW 16:12:41 10° NNE
Landsat 5 3.8 16:03:35 10° NNE 16:07:51 51° E 16:12:12 10° S
USA 215 4.4 16:04:01 10° ENE 16:09:19 26° SE 16:14:36 10° S
Cosmos 1980 4.3 16:05:23 10° S 16:10:37 39° ESE 16:15:53 10° NE
Cosmos 1869 3.6 16:07:08 10° SSW 16:11:11 75° WNW 16:15:20 10° N
YAOGAN 6 2.5 16:08:25 10° SSE 16:12:03 69° ENE 16:15:40 10° N
Cosmos 405 2.9 16:10:19 10° S 16:13:48 83° ESE 16:17:18 10° NNE
Cosmos 389 Rocket 3.9 16:12:48 10° SE 16:15:14 18° E 16:17:23 11° NE
Cosmos 1939 Rocket 4.0 16:12:38 10° ESE 16:15:39 22° ENE 16:18:40 10° NNE
Cosmos 2341 Rocket 4.4 16:09:42 10° N 16:15:39 42° ENE 16:21:36 10° SE
Cosmos 1607 4.4 16:11:10 10° WSW 16:17:28 62° NW 16:23:54 10° NE
H-2A R/B 3.4 16:14:25 10° S 16:18:11 59° W 16:22:02 10° NNW
H-2A R/B 2.2 16:15:49 10° NNE 16:19:53 50° E 16:23:59 10° S
Cosmos 2298 Rocket 4.4 16:17:40 10° NNW 16:22:58 71° WSW 16:28:14 10° SSE
NOAA 6 4.3 16:18:36 10° S 16:23:45 76° WSW 16:28:56 10° NNW
Cosmos 2150 Rocket 4.2 16:18:47 10° NNW 16:23:58 75° WSW 16:29:05 10° SSE
ISS -2.6 16:22:35 10° SW 16:25:37 32° SSE 16:27:59 14° E
Cosmos 1943 Rocket 2.9 16:22:02 10° NNW 16:26:56 31° NE 16:31:49 10° ESE
Cosmos 405 Rocket 3.0 16:23:22 10° NNW 16:27:15 74° W 16:31:12 10° S
Cosmos 1818 4.1 16:22:12 10° NW 16:27:39 67° SW 16:33:03 10° SSE
Cosmos 2285 Rocket 4.4 16:23:25 10° NNW 16:29:31 42° NE 16:35:31 10° SE
Cosmos 2297 4.0 16:24:06 10° NNW 16:29:34 46° NE 16:35:02 10° SE
Cosmos 1633 Rocket 3.8 16:25:53 10° N 16:29:45 29° ENE 16:33:35 10° SE
Cosmos 2327 Rocket 4.5 16:23:53 10° N 16:30:03 88° E 16:36:17 10° S
CZ-2C R/B 4.0 16:28:15 10° ESE 16:32:12 24° ENE 16:36:02 10° N
CRYOSAT 2 4.4 16:28:50 10° N 16:33:41 60° E 16:38:31 10° S
CZ-4B R/B 2.3 16:34:26 19° ENE 16:35:36 24° E 16:38:10 10° SSE
Cosmos 1125 Rocket 3.6 16:30:38 10° NNW 16:35:51 82° WSW 16:41:03 10° SSE
Cosmos 1356 3.6 16:32:36 10° N 16:35:56 45° ENE 16:39:14 10° SSE
SL-8 Rocket 4.2 16:30:25 10° N 16:36:23 45° ENE 16:42:21 10° SE
Meteor 2-2 Rocket 4.4 16:30:29 10° SSW 16:36:27 83° WNW 16:42:21 10° NNE
Meteor 2-12 Rocket 4.4 16:31:49 10° N 16:37:58 65° ENE 16:44:03 10° SSE
Cosmos 2322 Rocket 4.1 16:33:54 10° W 16:38:16 22° NW 16:42:37 10° NNE
SL-16 R/B 3.2 16:36:30 10° SSE 16:41:00 25° ESE 16:43:43 18° ENE
CREW DRAGON DEMO-1 DEB 3.2 16:38:04 10° W 16:41:02 61° SSW 16:43:19 15° ESE
Cosmos 2292 4.4 16:38:19 10° S 16:41:28 74° E 16:45:23 10° NNE
Cosmos 2221 3.2 16:37:31 10° SSW 16:41:48 57° WNW 16:46:04 10° N
SMAP 3.2 16:37:39 10° SSE 16:42:19 81° WSW 16:47:01 10° NNW
USA 267 3.2 16:38:09 10° ESE 16:44:40 76° NNE 16:51:13 10° WNW
Cosmos 540 Rocket 4.5 16:40:26 10° SW 16:45:21 45° WNW 16:50:17 10° NNE
Cosmos 2181 Rocket 4.4 16:42:57 10° SSE 16:48:53 41° E 16:54:48 10° NNE
Cosmos 1933 4.1 16:46:19 10° SSE 16:49:53 31° E 16:51:57 20° NE
Cosmos 1606 2.8 16:46:39 10° S 16:50:26 52° E 16:54:11 10° NNE
Cosmos 2333 Rocket 3.2 16:53:00 10° WSW 16:58:23 42° NW 17:03:47 10° NNE
H-2A R/B 4.4 16:56:03 10° SSW 16:59:59 34° W 17:03:50 10° NNW
IRS-1C Rocket 4.1 16:55:49 10° SE 17:00:58 58° ENE 17:06:11 10° N
YAOGAN 1 3.2 17:01:43 22° ESE 17:03:43 32° ENE 17:07:34 10° N
COSMOS 2428 3.6 16:58:33 10° SW 17:04:05 48° NW 17:09:39 10° NNE
Meteor 1-20 Rocket 4.2 16:58:26 10° N 17:04:17 66° ENE 17:10:06 10° SSE
Cosmos 2278 Rocket 3.8 17:00:05 10° NW 17:05:16 37° WSW 17:10:25 10° S
Cosmos 1470 Rocket 4.0 17:02:09 10° N 17:06:13 37° ENE 17:10:15 10° SE
ERS-2 2.1 17:08:37 27° NNE 17:10:26 59° ESE 17:14:04 10° S
YAOGAN 3 4.5 17:07:41 10° SSE 17:12:03 80° ENE 17:16:26 10° NNW
COSMO-SKYMED 1 2.8 17:10:27 25° NE 17:12:41 46° E 17:16:51 10° S
USA 281 3.1 17:06:43 10° SE 17:13:12 67° ENE 17:19:44 10° NNW
USA 81 3.9 17:08:15 10° N 17:13:33 69° E 17:18:48 10° SSE
Helios 1A Rocket 3.1 17:11:26 19° SE 17:14:02 43° ENE 17:17:51 10° N
Feng Yun 1-1 Rocket 4.3 17:08:38 10° SSE 17:14:26 89° ENE 17:20:08 10° NNW
MOS 1 Rocket 4.4 17:14:02 29° E 17:14:40 30° E 17:19:25 10° SSE
TELKOM 3 4.5 17:12:29 10° SW 17:14:32 29° S 17:14:32 29° S
Sich 1 3.7 17:13:44 10° NNW 17:18:04 57° W 17:22:20 10° S
Cosmos 2360 Rocket 4.2 17:14:26 10° W 17:18:31 20° NW 17:22:38 10° NNE
Okean-O 2.7 17:17:03 10° SE 17:21:22 54° ENE 17:25:42 10° N
Cosmos 1602 3.8 17:19:50 10° N 17:23:43 52° ENE 17:24:18 47° ESE
Lacrosse 5 rocket 2.7 17:20:56 10° S 17:22:55 20° SSE 17:22:55 20° SSE
H-2A R/B 2.4 17:21:16 22° ESE 17:24:12 42° ENE 17:29:03 10° N
Cosmos 2218 Rocket 3.8 17:18:10 10° N 17:24:22 79° E 17:30:31 10° SSE
Cosmos 2219 Rocket 3.7 17:20:24 10° WSW 17:25:27 32° NW 17:30:27 10° NNE
Meteor 1-25 Rocket 4.1 17:20:00 10° NNW 17:25:38 89° ENE 17:31:18 10° S
CZ-2D R/B 3.1 17:21:56 10° SSE 17:25:44 77° ENE 17:29:35 10° N
Cosmos 44 3.5 17:21:41 10° NW 17:26:57 83° SW 17:31:48 13° SE
EO 1 Delta rocket 4.3 17:23:41 10° NNE 17:28:49 58° E 17:35:10 10° S
Okean O Rocket 3.5 17:27:09 10° SSW 17:31:02 31° W 17:34:58 10° NNW
Cosmos 1656 Rocket 4.3 17:28:35 10° NNW 17:33:46 34° NE 17:33:52 34° NE
Cosmos 2366 rocket 3.9 17:27:43 10° N 17:34:00 88° E 17:40:10 10° S
Cosmos 1151 Rocket 2.8 17:31:07 10° S 17:35:23 74° E 17:36:52 40° NNE
Cosmos 2237 Rocket 2.6 17:30:31 10° SW 17:36:05 61° NW 17:40:11 19° NNE
SL-16 R/B 4.5 17:34:20 10° NW 17:36:44 13° NNW 17:39:08 10° N
SKYMED 3 4.4 17:34:47 31° NNE 17:36:49 78° ESE 17:41:09 10° S
Cosmos 1933 Rocket 3.9 17:32:31 10° N 17:36:05 45° NE 17:36:05 45° NE
Cosmos 1666 Rocket 4.2 17:33:37 10° NNW 17:37:56 55° W 17:42:15 10° S
BREEZE-M DEB (TANK) 4.2 17:36:53 10° SW 17:37:36 16° SSW 17:37:36 16° SSW
SJ-11-01 4.4 17:39:21 50° ENE 17:39:21 50° ENE 17:43:46 10° N
CZ-4 R/B 1.1 17:38:52 48° SSE 17:39:54 77° ENE 17:43:55 10° NNW
Cosmos 1328 Rocket 3.3 17:40:10 10° S 17:44:28 80° E 17:45:21 56° NNE
CSL-04 Rocket 3.6 17:44:43 45° ESE 17:45:56 56° ENE 17:51:09 10° N
Cosmos 2369 Rocket 2.2 17:40:50 10° NNW 17:46:31 62° NE 17:47:50 49° ESE
Cosmos 389 Rocket 4.0 17:46:32 10° SW 17:49:41 34° WNW 17:51:14 22° NNW
Cosmos 1939 Rocket 4.0 17:46:40 10° S 17:50:20 42° W 17:54:05 10° NNW
USA 215 3.2 17:50:49 43° ENE 17:53:06 72° SE 17:59:38 10° SW
H-2A R/B 4.3 17:52:24 10° N 17:55:35 22° WNW 17:58:49 10° WSW
Cosmos 489 Rocket 4.5 17:51:20 10° S 17:57:20 54° ESE 17:57:38 54° E
Cosmos 2239 Rocket 4.4 17:54:38 10° N 18:00:38 56° ENE 18:00:38 56° ENE
SKYMED 2 3.9 17:59:06 34° N 18:00:50 63° WNW 18:05:07 10° SSW
ISS -2.2 17:58:51 10° WSW 18:00:57 35° WSW 18:00:57 35° WSW
Cosmos 1867 3.6 18:01:13 10° SW 18:06:41 80° NW 18:07:37 61° NNE
CZ-4B R/B 3.5 18:07:34 22° WNW 18:07:46 22° WNW 18:10:14 10° WSW
Cosmos 1943 Rocket 2.5 18:05:36 10° NW 18:11:06 64° WSW 18:14:16 25° S
CZ-2C R/B 3.4 18:06:43 10° S 18:11:46 60° WSW 18:16:37 10° NNW
ARGOS 3.2 18:19:45 69° N 18:19:45 69° N 18:24:32 10° NNW
SL-16 R/B 2.4 18:19:02 10° SW 18:24:40 67° WNW 18:25:38 56° N
Nadezhda 3 Rocket 4.4 18:18:22 10° S 18:33:04 - NNE 18:22:55 49° SSE
NOSS 3-3 (A) 4.4 18:20:32 10° NW 18:27:46 67° NE 18:28:26 65° ENE
NOSS 3-3 (C) 4.4 18:20:38 10° NW 18:27:51 67° NE 18:28:30 64° ENE
USA 267 3.9 18:25:00 30° SSE 18:27:56 50° SW 18:34:17 10° WNW
Cosmos 1821 Rocket 4.0 18:29:49 10° NNW 18:36:01 76° W 18:38:27 40° S
Cosmos 2263 4.4 18:31:15 10° NNW 18:35:57 63° NW 18:35:57 63° NW
YAOGAN 1 4.1 18:38:54 30° WSW 18:39:46 33° W 18:43:45 10° NNW
Cosmos 2333 Rocket 4.5 18:41:04 10° WNW 18:44:15 15° NNW 18:46:14 13° N
MOS 1 Rocket 4.4 18:53:21 50° W 18:53:21 50° W 18:58:21 10° SW
H-2A R/B 3.5 19:01:53 27° SW 19:03:43 34° W 19:08:27 10° NNW
CZ-4 R/B 4.5 19:14:54 12° W 19:15:29 12° W 19:17:10 10° WNW
Cosmos 2237 Rocket 4.3 19:17:28 10° WNW 19:21:21 18° NNW 19:22:01 18° NNW
Cosmos 2369 Rocket 4.0 19:25:27 10° NW 19:29:40 27° W 19:29:40 27° W
USA 215 4.2 19:38:10 43° WNW 19:38:10 43° WNW 19:42:32 10° W
